Weather observations for the past three days for
Milledgeville, Baldwin County Airport
Imperial (Metric)
Date Time (edt) Wind (mph) Vis. (mi.) Weather Sky Cond. Temperature (ºF) Relative Humidity Wind Chill (°F) Heat Index (°F) Pressure Precipitation (in)
Air Dwpt 6 hour altimeter (in) sea level (mb) 1 hr 3 hr 6 hr
Max. Min.
23 16:55 SE 3 10.00 Partly Cloudy FEW046 SCT055 SCT065 87.8 78.8 75% 102 30.05 0.0
23 16:35 Calm 10.00 Partly Cloudy FEW043 SCT055 87.8 77 70% 100 30.05 0.0
23 16:15 Vrbl 6 10.00 Mostly Cloudy SCT043 BKN049 BKN055 86 78.8 79% 99 30.06 0.0
23 15:55 NW 5 10.00 Mostly Cloudy FEW045 SCT050 BKN055 86 78.8 79% 99 30.06 0.0
23 15:35 Vrbl 7 10.00 Mostly Cloudy BKN042 BKN050 BKN055 86 78.8 79% 99 30.07 0.0
23 15:15 Vrbl 6 G 16 10.00 Thunderstorm in Vicinity SCT040 SCT050 BKN075 86 77 75% 97 30.07 0.0
23 14:55 Vrbl 6 G 14 10.00 Mostly Cloudy SCT038 BKN085 89.6 77 67% 103 30.07 0.0
23 14:35 SE 6 10.00 Thunderstorm in Vicinity SCT080 89.6 77 67% 103 30.08 0.0
23 14:15 Vrbl 7 G 13 10.00 Thunderstorm FEW036 SCT042 SCT050 89.6 77 67% 103 30.09 0.0
23 13:55 Vrbl 7 G 14 10.00 Thunderstorm in Vicinity SCT036 BKN042 BKN055 89.6 77 67% 103 30.09 0.0
23 13:35 Calm 10.00 Mostly Cloudy BKN034 BKN045 BKN055 87.8 77 70% 100 30.1 0.0
23 13:15 Vrbl 5 10.00 Partly Cloudy FEW030 SCT037 SCT060 89.6 77 67% 103 30.1 0.0
23 12:55 Vrbl 3 10.00 Partly Cloudy SCT039 SCT065 SCT075 89.6 78.8 71% 105 30.11 0.0
23 12:35 Calm 10.00 Mostly Cloudy SCT030 SCT040 BKN065 87.8 77 70% 100 30.11 0.0
23 12:15 Calm 10.00 Overcast BKN030 BKN042 OVC070 86 77 75% 97 30.12 0.0
23 11:55 Calm 10.00 Overcast SCT030 BKN040 OVC090 86 77 75% 97 30.12 0.0
23 11:35 Calm 10.00 Mostly Cloudy FEW033 SCT055 BKN080 86 77 75% 97 30.12 0.0
23 11:15 Calm 10.00 Partly Cloudy SCT024 SCT037 84.2 77 79% 94 30.11 0.0
23 10:55 Vrbl 5 10.00 Mostly Cloudy BKN022 BKN027 86 77 75% 97 30.11 0.0
23 10:35 Calm 10.00 Mostly Cloudy BKN020 84.2 77 79% 94 30.11 0.0
23 10:15 Calm 10.00 Partly Cloudy SCT019 82.4 77 84% 91 30.12 0.0
23 09:55 Calm 10.00 Partly Cloudy SCT016 82.4 77 84% 91 30.11 0.0
23 09:35 Calm 10.00 A Few Clouds FEW015 82.4 77 84% 91 30.11 0.0
23 09:15 Calm 10.00 Fair CLR 80.6 77 89% 87 30.11 0.0
23 08:55 Calm 10.00 Fair CLR 80.6 77 89% 87 30.11 0.0
23 08:35 Calm 10.00 Fair CLR 78.8 77 94% 83 30.11 0.0
23 08:15 Calm 10.00 Partly Cloudy SCT036 SCT041 77 77 100% 78 30.11 0.0
23 07:55 Calm 10.00 Overcast FEW004 BKN036 OVC042 75.2 75.2 100% 73 30.1 0.0
23 07:35 Calm 10.00 Overcast SCT003 OVC036 75.2 75.2 100% 73 30.1 0.0
23 07:15 Calm 10.00 Mostly Cloudy SCT003 BKN035 75.2 75.2 100% 73 30.09 0.0
23 06:55 Calm 9.00 A Few Clouds FEW003 75.2 75.2 100% 73 30.09 0.0
23 06:35 Calm 9.00 Fair CLR 75.2 75.2 100% 73 30.09 0.0
23 06:15 Calm 9.00 A Few Clouds FEW003 75.2 75.2 100% 73 30.09 0.0
23 05:55 Calm 10.00 Fair CLR 75.2 75.2 100% 73 30.08 0.0
23 05:35 Calm 10.00 Fair CLR 75.2 75.2 100% 73 30.08 0.0
23 05:15 Calm 10.00 Fair CLR 75.2 75.2 100% 73 30.07 0.0
23 04:55 Calm 10.00 Fair CLR 75.2 75.2 100% 73 30.05 0.0
23 04:35 Calm 10.00 Fair CLR 75.2 75.2 100% 73 30.05 0.0
23 04:15 Calm 10.00 Fair CLR 75.2 75.2 100% 73 30.05 0.0
23 03:55 Calm 10.00 Fair CLR 75.2 75.2 100% 73 30.05 0.0
23 03:35 Calm 10.00 Fair CLR 75.2 75.2 100% 73 30.05 0.0
23 03:15 Calm 10.00 Fair CLR 77 75.2 94% 78 30.05 0.0
23 02:35 Calm 10.00 Fair CLR 77 75.2 94% 78 30.05 0.0
23 02:15 Calm 10.00 Fair CLR 77 77 100% 78 30.05 0.0
23 01:55 Calm 10.00 Fair CLR 77 77 100% 78 30.05 0.0
23 01:35 Calm 10.00 Fair CLR 77 77 100% 78 30.06 0.0
23 01:15 Calm 10.00 Fair CLR 77 77 100% 78 30.05 0.0
23 00:55 Calm 10.00 Fair CLR 77 77 100% 78 30.05 0.0
23 00:35 Calm 10.00 Fair CLR 77 77 100% 78 30.05 0.0
23 00:15 Calm 10.00 Fair CLR 77 77 100% 78 30.05 0.0
22 23:55 Calm 10.00 Fair CLR 78.8 77 94% 83 30.05 0.0
22 23:35 Calm 10.00 Fair CLR 78.8 77 94% 83 30.06 0.0
22 23:15 Calm 10.00 Fair CLR 78.8 77 94% 83 30.05 0.0
22 22:55 Calm 10.00 Fair CLR 78.8 77 94% 83 30.06 0.0
22 22:15 Calm 10.00 Fair CLR 80.6 77 89% 87 30.04 0.0
22 21:55 Calm 10.00 Fair CLR 78.8 77 94% 83 30.04 0.0
22 21:35 Calm 10.00 Fair CLR 80.6 77 89% 87 30.03 0.0
22 21:15 Calm 10.00 Fair CLR 80.6 77 89% 87 30.03 0.0
22 20:55 Calm 10.00 Fair CLR 80.6 77 89% 87 30.02 0.0
22 20:15 Calm 10.00 Fair CLR 82.4 75.2 79% 89 30.02 0.0
22 19:55 Calm 10.00 Fair CLR 84.2 75.2 74% 92 30.01 0.0
22 19:35 Calm 10.00 Fair CLR 86 75.2 70% 95 30 0.0
22 19:15 Calm 10.00 Fair CLR 86 75.2 70% 95 30 0.0
22 18:55 Calm 10.00 Fair CLR 86 75.2 70% 95 29.99 0.0
22 18:35 Vrbl 5 10.00 A Few Clouds FEW041 86 75.2 70% 95 30 0.0
22 18:15 Calm 10.00 A Few Clouds FEW041 FEW050 87.8 75.2 66% 98 30 0.0
22 17:55 Vrbl 3 10.00 A Few Clouds FEW041 89.6 75.2 63% 100 30 0.0
22 17:15 Vrbl 7 10.00 Fair CLR 89.6 75.2 63% 100 30 0.0
22 16:55 Vrbl 6 10.00 Fair CLR 87.8 75.2 66% 98 30.01 0.0
22 16:35 Vrbl 3 10.00 Fair CLR 87.8 73.4 62% 96 30.01 0.0
22 16:15 Vrbl 3 10.00 A Few Clouds FEW034 FEW040 86 73.4 66% 93 30.01 0.0
22 15:55 N 3 10.00 Partly Cloudy SCT034 SCT040 86 73.4 66% 93 30.02 0.0
22 15:35 W 6 10.00 A Few Clouds FEW035 87.8 73.4 62% 96 30.03 0.0
22 15:15 NW 5 10.00 Fair CLR 87.8 73.4 62% 96 30.04 0.0
22 14:55 N 3 10.00 Fair CLR 86 73.4 66% 93 30.05 0.0
22 14:35 Vrbl 5 10.00 Fair CLR 86 75.2 70% 95 30.05 0.0
22 14:15 Vrbl 3 10.00 A Few Clouds FEW028 86 73.4 66% 93 30.06 0.0
22 13:55 Calm 10.00 Partly Cloudy SCT027 84.2 75.2 74% 92 30.06 0.0
22 13:35 Calm 10.00 Partly Cloudy SCT025 84.2 75.2 74% 92 30.07 0.0
22 13:15 Calm 10.00 Partly Cloudy SCT025 86 75.2 70% 95 30.07 0.0
22 12:55 Calm 10.00 Fair CLR 84.2 75.2 74% 92 30.07 0.0
22 12:35 Vrbl 3 10.00 A Few Clouds FEW021 FEW120 82.4 75.2 79% 89 30.08 0.0
22 12:15 Calm 10.00 Partly Cloudy SCT021 82.4 75.2 79% 89 30.08 0.0
22 11:55 W 5 10.00 Mostly Cloudy BKN020 80.6 75.2 84% 86 30.08 0.0
22 11:35 Calm 10.00 Mostly Cloudy BKN019 80.6 75.2 84% 86 30.08 0.0
22 11:15 W 6 10.00 Overcast OVC015 80.6 75.2 84% 86 30.08 0.0
22 10:55 W 6 10.00 Mostly Cloudy SCT013 BKN017 80.6 75.2 84% 86 30.08 0.0
22 10:35 Calm 10.00 A Few Clouds FEW011 78.8 75.2 89% 82 30.08 0.0
22 10:15 Calm 10.00 Partly Cloudy SCT008 SCT012 77 75.2 94% 78 30.07 0.0
22 09:55 Calm 10.00 Partly Cloudy SCT009 77 75.2 94% 78 30.07 0.0
22 09:35 Calm 10.00 Partly Cloudy SCT009 77 75.2 94% 78 30.07 0.0
22 09:15 Calm 10.00 Partly Cloudy SCT007 SCT012 77 75.2 94% 78 30.07 0.0
22 08:55 Calm 10.00 Partly Cloudy SCT005 75.2 75.2 100% 73 30.07 0.0
22 08:35 Calm 10.00 Mostly Cloudy BKN005 75.2 75.2 100% 73 30.07 0.0
22 08:15 Calm 10.00 Overcast OVC004 73.4 73.4 100% 30.06 0.0
22 07:55 Calm 10.00 Overcast OVC004 73.4 73.4 100% 30.06 0.0
22 07:35 Calm 9.00 Overcast OVC003 73.4 73.4 100% 30.04 0.0
22 07:15 Calm 10.00 Overcast OVC003 73.4 73.4 100% 30.05 0.0
22 06:55 Calm 10.00 Overcast OVC003 73.4 73.4 100% 30.05 0.0
22 06:35 Calm 8.00 Overcast OVC003 73.4 73.4 100% 30.04 0.0
22 06:15 Vrbl 3 5.00 Fog/Mist OVC002 73.4 73.4 100% 30.04 0.0
22 05:55 NW 5 3.00 Fog/Mist OVC002 73.4 73.4 100% 30.03 0.0
22 05:35 NW 6 1.50 Fog/Mist OVC002 73.4 73.4 100% 30.02 0.0
22 05:15 Vrbl 3 3.00 Fog/Mist OVC003 73.4 73.4 100% 30.02 0.0
22 04:55 NW 3 10.00 Overcast OVC004 73.4 73.4 100% 30.02 0.0
22 04:35 Calm 10.00 Overcast OVC005 71.6 71.6 100% 30.02 0.0
22 04:15 Calm 10.00 Overcast OVC005 71.6 71.6 100% 30.02 0.0
22 03:55 Calm 10.00 Mostly Cloudy BKN007 BKN010 73.4 73.4 100% 30.01 0.0
22 03:35 Calm 10.00 Partly Cloudy FEW004 SCT009 71.6 71.6 100% 30.02 0.0
22 03:15 Calm 10.00 Mostly Cloudy BKN004 BKN012 73.4 73.4 100% 30.01 0.0
22 02:55 Calm 10.00 Partly Cloudy SCT003 73.4 73.4 100% 30.01 0.0
22 02:35 Calm 10.00 Fair CLR 73.4 73.4 100% 30.03 0.0
22 02:15 Calm 10.00 A Few Clouds FEW003 73.4 73.4 100% 30.04 0.0
22 01:55 Calm 10.00 A Few Clouds FEW003 73.4 73.4 100% 30.05 0.0
22 01:35 Calm 10.00 Fair CLR 73.4 73.4 100% 30.06 0.0
22 01:15 Calm 10.00 A Few Clouds FEW020 FEW110 73.4 73.4 100% 30.06 0.0
22 00:55 Calm 10.00 Mostly Cloudy SCT020 SCT065 BKN110 73.4 73.4 100% 30.07 0.0
22 00:35 Calm 10.00 Partly Cloudy FEW090 SCT120 73.4 73.4 100% 30.08 0.0
22 00:15 Calm 10.00 Partly Cloudy FEW044 SCT050 SCT075 73.4 73.4 100% 30.09 0.0
21 23:55 Calm 10.00 Mostly Cloudy SCT045 SCT065 BKN120 73.4 73.4 100% 30.09 0.0
21 23:35 Vrbl 5 10.00 Mostly Cloudy SCT004 SCT050 BKN075 73.4 73.4 100% 30.09 0.0
21 22:55 Calm 9.00 Mostly Cloudy BKN003 BKN006 75.2 75.2 100% 73 30.07 0.0
21 22:35 Calm 10.00 Mostly Cloudy SCT003 BKN007 BKN012 75.2 75.2 100% 73 30.08 0.0
21 22:15 Calm 10.00 Mostly Cloudy BKN005 BKN010 75.2 75.2 100% 73 30.07 0.0
21 21:55 Calm 10.00 Thunderstorm in Vicinity SCT004 SCT037 SCT050 75.2 75.2 100% 73 30.06 0.0
21 21:35 Calm 6.00 Fog/Mist BKN004 BKN060 BKN075 75.2 75.2 100% 73 30.05 0.0
21 21:15 Calm 10.00 Partly Cloudy FEW060 FEW075 SCT090 75.2 75.2 100% 73 30.04 0.0
21 20:55 Calm 1.75 Light Rain Fog/Mist VV007 73.4 73.4 100% 30.02 0.0
21 20:35 Calm 1.50 Rain Fog/Mist SCT004 SCT055 SCT100 75.2 75.2 100% 73 30.04 0.0
21 20:15 Calm 1.50 Rain Fog/Mist SCT039 SCT050 BKN075 75.2 75.2 100% 73 30.04 0.0
21 19:55 Calm 10.00 Thunderstorm in Vicinity Rain SCT024 BKN036 BKN048 75.2 75.2 100% 73 30.04 0.0
21 19:35 Calm 10.00 Thunderstorm in Vicinity FEW003 BKN024 OVC033 75.2 75.2 100% 73 30.04 0.0
21 19:15 Vrbl 7 1.00 Thunderstorm in Vicinity Rain Fog/Mist SCT004 OVC027 75.2 75.2 100% 73 30.04 0.0
21 18:55 Calm 10.00 Light Rain FEW065 SCT085 BKN110 77 75.2 94% 78 30.02 0.0
21 18:35 Calm 10.00 Thunderstorm in Vicinity SCT055 SCT065 77 75.2 94% 78 30.01 0.0
21 18:15 W 3 10.00 Partly Cloudy SCT055 SCT065 SCT120 77 75.2 94% 78 30.01 0.0
21 17:55 W 5 10.00 Light Rain FEW046 SCT075 BKN120 78.8 75.2 89% 82 30.01 0.0
21 17:35 Vrbl 6 G 12 6.00 Light Rain Fog/Mist SCT035 BKN050 OVC090 78.8 75.2 89% 82 30 0.0
21 17:15 W 8 G 17 10.00 Overcast BKN035 OVC044 82.4 71.6 70% 87 30.02 0.0
21 16:55 Vrbl 3 10.00 Thunderstorm in Vicinity SCT041 BKN047 86 77 75% 97 30.01 0.0
21 16:35 Vrbl 5 10.00 A Few Clouds FEW031 87.8 77 70% 100 30.01 0.0
21 16:15 Calm 10.00 Thunderstorm in Vicinity CLR 87.8 77 70% 100 30.01 0.0
21 15:55 Vrbl 7 10.00 Thunderstorm in Vicinity FEW036 SCT045 87.8 77 70% 100 30.02 0.0
21 15:35 Vrbl 6 10.00 Thunderstorm in Vicinity SCT028 BKN036 OVC043 86 77 75% 97 30.02 0.0
21 15:15 Vrbl 3 10.00 Mostly Cloudy FEW026 BKN038 BKN043 86 77 75% 97 30.02 0.0
21 14:55 Vrbl 6 10.00 Mostly Cloudy SCT024 SCT037 BKN070 86 78.8 79% 99 30.03 0.0
21 14:35 Vrbl 5 10.00 Mostly Cloudy SCT023 SCT029 BKN055 87.8 78.8 75% 102 30.04 0.0
21 14:15 Vrbl 6 10.00 Partly Cloudy FEW021 FEW046 SCT055 86 78.8 79% 99 30.05 0.0
21 13:55 Vrbl 7 10.00 Mostly Cloudy SCT022 SCT033 BKN046 86 77 75% 97 30.06 0.0
21 13:35 E 3 10.00 Mostly Cloudy BKN022 BKN028 BKN035 84.2 77 79% 94 30.07 0.0
21 13:15 SE 5 10.00 Mostly Cloudy FEW020 SCT027 BKN035 84.2 77 79% 94 30.07 0.0
21 12:55 Vrbl 3 10.00 Overcast BKN020 BKN029 OVC033 82.4 77 84% 91 30.08 0.0
21 12:35 Calm 10.00 Overcast BKN018 OVC026 82.4 77 84% 91 30.09 0.0
21 12:15 E 5 10.00 Overcast SCT019 OVC026 82.4 75.2 79% 89 30.09 0.0
21 11:55 Calm 10.00 Overcast BKN017 OVC023 80.6 77 89% 87 30.09 0.0
21 11:35 Calm 10.00 Overcast BKN015 OVC021 80.6 77 89% 87 30.09 0.0
21 11:15 Calm 10.00 Overcast OVC016 80.6 77 89% 87 30.09 0.0
21 10:55 Calm 10.00 Overcast BKN012 OVC017 78.8 75.2 89% 82 30.09 0.0
21 10:35 Calm 10.00 Overcast OVC012 78.8 75.2 89% 82 30.09 0.0
21 10:15 Calm 10.00 Overcast BKN009 OVC012 77 75.2 94% 78 30.08 0.0
21 09:55 SW 3 10.00 Overcast BKN007 OVC012 77 75.2 94% 78 30.08 0.0
21 09:35 Calm 10.00 Overcast OVC007 75.2 75.2 100% 73 30.09 0.0
21 09:15 Calm 10.00 Overcast OVC005 75.2 75.2 100% 73 30.09 0.0
21 08:55 Calm 10.00 Overcast OVC005 75.2 73.4 94% 74 30.1 0.0
21 08:35 Calm 10.00 Overcast OVC005 73.4 73.4 100% 30.1 0.0
21 08:15 Vrbl 3 10.00 Overcast OVC005 73.4 73.4 100% 30.11 0.0
21 07:55 Calm 10.00 Overcast OVC005 73.4 73.4 100% 30.1 0.0
21 07:35 Vrbl 5 10.00 Overcast OVC006 73.4 73.4 100% 30.09 0.0
21 07:15 Calm 10.00 Overcast OVC005 73.4 73.4 100% 30.09 0.0
21 06:55 Vrbl 3 10.00 Overcast OVC005 73.4 73.4 100% 30.09 0.0
21 06:35 Calm 10.00 Overcast OVC005 73.4 73.4 100% 30.08 0.0
21 06:15 Calm 10.00 Mostly Cloudy BKN006 BKN019 73.4 73.4 100% 30.08 0.0
21 05:55 Calm 10.00 Mostly Cloudy SCT005 BKN019 BKN029 73.4 73.4 100% 30.07 0.0
21 05:35 Calm 10.00 Overcast BKN005 BKN018 OVC034 73.4 73.4 100% 30.07 0.0
21 05:15 Calm 10.00 Overcast BKN005 OVC034 71.6 71.6 100% 30.07 0.0
21 04:55 Calm 10.00 Overcast SCT006 BKN022 OVC032 73.4 73.4 100% 30.07 0.0
21 04:35 Calm 10.00 Overcast SCT006 OVC022 73.4 73.4 100% 30.07 0.0
21 04:15 Calm 10.00 Overcast OVC006 73.4 73.4 100% 30.07 0.0
21 03:55 Calm 10.00 Overcast BKN006 OVC010 73.4 73.4 100% 30.07 0.0
21 03:35 S 3 10.00 Overcast BKN006 OVC009 73.4 73.4 100% 30.08 0.0
21 03:15 Calm 10.00 Overcast OVC006 73.4 73.4 100% 30.09 0.0
21 02:55 Calm 10.00 Overcast OVC007 73.4 73.4 100% 30.09 0.0
21 02:35 Vrbl 3 10.00 Overcast OVC007 73.4 73.4 100% 30.09 0.0
21 02:15 Calm 6.00 Fog/Mist OVC006 73.4 73.4 100% 30.09 0.0
21 01:55 Calm 10.00 Mostly Cloudy BKN005 BKN008 73.4 73.4 100% 30.1 0.0
21 01:35 Calm 10.00 Mostly Cloudy BKN004 BKN036 73.4 73.4 100% 30.09 0.0
21 01:15 Vrbl 3 10.00 Mostly Cloudy BKN005 BKN035 73.4 73.4 100% 30.09 0.0
21 00:55 S 3 10.00 Partly Cloudy SCT005 73.4 73.4 100% 30.09 0.0
21 00:35 Vrbl 5 10.00 Mostly Cloudy BKN006 75.2 75.2 100% 73 30.09 0.0
20 23:55 Calm 10.00 Mostly Cloudy BKN005 BKN009 75.2 75.2 100% 73 30.1 0.0
20 23:35 Calm 9.00 Mostly Cloudy BKN006 75.2 75.2 100% 73 30.11 0.0
20 23:15 Vrbl 5 10.00 Mostly Cloudy BKN005 75.2 75.2 100% 73 30.11 0.0
20 22:55 Calm 10.00 Mostly Cloudy SCT006 BKN070 75.2 75.2 100% 73 30.11 0.0
20 22:35 Vrbl 3 8.00 Mostly Cloudy BKN007 BKN010 BKN070 77 77 100% 78 30.12 0.0
20 22:15 Calm 10.00 Mostly Cloudy BKN010 BKN015 BKN070 77 77 100% 78 30.11 0.0
20 21:55 Calm 10.00 Overcast OVC010 77 77 100% 78 30.11 0.0
20 21:35 Vrbl 5 10.00 Overcast BKN009 OVC013 77 77 100% 78 30.1 0.0
20 21:15 Vrbl 3 10.00 Mostly Cloudy BKN011 77 77 100% 78 30.09 0.0
20 20:55 Vrbl 3 10.00 A Few Clouds FEW010 77 77 100% 78 30.09 0.0
20 20:35 Calm 10.00 Fair CLR 78.8 77 94% 83 30.07 0.0
20 20:15 Vrbl 3 10.00 Fair CLR 78.8 77 94% 83 30.06 0.0
20 19:55 Calm 10.00 A Few Clouds FEW011 78.8 77 94% 83 30.05 0.0
20 19:35 Calm 10.00 Partly Cloudy SCT011 78.8 78.8 100% 83 30.05 0.0
20 19:15 Vrbl 5 10.00 Partly Cloudy SCT010 78.8 78.8 100% 83 30.06 0.0
20 18:55 Vrbl 6 10.00 Mostly Cloudy BKN010 80.6 78.8 94% 88 30.07 0.0
20 18:35 Vrbl 5 10.00 A Few Clouds FEW012 80.6 80.6 100% 89 30.07 0.0
20 18:15 Calm 10.00 Fair CLR 80.6 80.6 100% 89 30.07 0.0
20 17:55 Calm 10.00 Light Rain CLR 80.6 78.8 94% 88 30.06 0.0
20 17:35 Calm 10.00 A Few Clouds FEW014 82.4 78.8 89% 92 30.05 0.0
20 17:15 Vrbl 3 10.00 A Few Clouds FEW019 FEW027 82.4 78.8 89% 92 30.06 0.0
Date Time (edt) Wind (mph) Vis. (mi.) Weather Sky Cond. Air Dwpt Max. Min. Relative Humidity Wind Chill (°F) Heat Index (°F) altimeter (in) sea level (mb) 1 hr 3 hr 6 hr
6 hour
Temperature (ºF) Pressure Precipitation (in)